Location: Cadenet
(43.7345°N, 5.3750°E)
Time: 23:59:44
(UTC+00:00)

ALOS - Pass Details

Date: 18 February 2020
Orbit: 684 x 685 km, 97.8° (Epoch: 09 April)

Event Time Altitude Azimuth Distance (km) Brightness Sun altitude
Rises 04:13:33 0° 21° (NNE) 3,060 6.0 -26.0°
Reaches altitude 10° 04:15:59 10° 31° (NNE) 2,139 5.3 -25.5°
Maximum altitude 04:20:16 35° 96° (E) 1,111 3.9 -24.8°
Drops below altitude 10° 04:24:30 10° 162° (SSE) 2,123 4.9 -24.0°
Sets 04:26:54 0° 172° (S) 3,033 5.6 -23.6°
